Terug naar catalogus

SJ-11-03

ActiefWetenschapSSO
NORAD 37730·PAYLOAD·🇨🇳 China

Gelanceerd Jul 6, 2011 vanaf Jiuquan Satellite Launch Center

Loading…

Volgende Passages (komende 24 uur)

TLE

VersSource: Space-Track

Epoch: Sep 14, 2026, 14:12 UTC

1 37730U 11030A   26257.59222244  .00000103  00000-0  28052-4 0  9992
2 37730  97.9445 218.4603 0009483 106.3828  25.9196 14.64409171810194

Volg SJ-11-03 in realtime met AllMySat

Download on the App Store